Location: Isle of Man Observatory
(54.1776°N, 4.6264°W)
Time: 22:01:00
(UTC+02:00)

OTV 5 (USA 277) - Visible Passes

Search period start: 23 September 2018 00:00
Search period end: 03 October 2018 00:00
Orbit: 387 x 394 km, 54.5° (Epoch: 08 September)

Date Brightness Start Highest point End Pass type
(mag) Time Alt. Az. Time Alt. Az. Time Alt. Az.
29 Sep ? 07:28:26 10° SSW 07:31:07 25° SE 07:33:48 10° E visible
30 Sep ? 06:33:03 10° S 06:35:01 15° SE 06:36:58 10° E visible
01 Oct ? 07:11:18 11° SW 07:14:10 36° SSE 07:17:09 10° E visible
02 Oct ? 06:17:15 21° SSE 06:17:58 23° SE 06:20:35 10° E visible
